#timestamp,LO_Frequency,Hit 
1500735615.2,286046077.0,N
1500735635.1,286046078.6,N
1500735636.0,286046078.6,N
1500735655.8,286046081.0,N
1500735675.7,286046080.6,N
1500735695.5,286046078.1,N
1500735715.3,286046080.2,N
1500735735.2,286046080.4,N
1500735755.0,286046080.0,N
1500735755.9,286046080.0,N
1500735775.7,286046082.3,N
1500735795.6,286046082.5,N
1500735815.4,286046082.6,N
1500735835.3,286046081.5,N
1500735855.1,286046079.9,N
1500735875.8,286046081.1,N
1500735895.7,286046080.0,N
1500735915.5,286046080.3,N
1500735935.4,286046081.0,N
1500735955.2,286046082.2,N
1500735975.0,286046078.2,N
1500735975.9,286046078.2,N
1500735995.8,286046078.2,N
1500736015.6,286046081.9,N
1500736035.4,286046081.5,N
1500736055.3,286046080.6,N
1500736075.1,286046080.9,N
1500736095.9,286046080.4,N
1500736115.7,286046080.0,N
1500736135.5,286046080.8,N
1500736155.4,286046080.3,N
1500736175.2,286046081.8,N
1500736195.0,286046080.2,N
1500736195.9,286046080.2,N
1500736215.8,286046080.4,N
1500736235.6,286046081.3,N
1500736255.5,286046082.3,N
1500736275.3,286046080.9,N
1500736295.1,286046081.1,N
1500736315.9,286046080.6,N
1500736335.7,286046080.7,N
1500736355.5,286046080.9,N
1500736375.4,286046081.9,N
1500736395.2,286046082.7,N
1500736415.1,286046080.4,N
1500736416.0,286046080.4,N
1500736435.8,286046082.1,N
1500736455.6,286046080.2,N
1500736475.5,286046079.9,N
1500736495.3,286046080.1,N
1500736515.2,286046079.9,N
1500736535.9,286046080.6,N
1500736585.8,286046082.0,Y
1500736595.7,286046468.8,N
1500736615.5,286046999.3,N
1500736635.4,286046999.4,N
1500736655.2,286046998.9,N
1500736675.0,286046997.6,N
1500736675.9,286046997.6,N
1500736695.8,286046997.3,N
1500736715.6,286046999.2,N
1500736735.5,286046998.7,N
1500736755.3,286046999.4,N
1500736775.1,286047000.7,N
1500736795.9,286046998.3,N
1500736815.7,286046999.5,N
1500736835.5,286046996.9,N
1500736855.4,286046996.8,N
1500736875.2,286046997.4,N
1500736895.1,286046999.3,N
1500736896.0,286046999.3,N
1500736915.8,286046999.5,N
1500736935.6,286046998.9,N
1500736955.5,286046998.2,N
1500736975.3,286046998.1,N
1500736995.1,286046998.4,N
1500737015.9,286046998.3,N
1500737035.7,286046998.4,N
1500737055.6,286046998.4,N
1500737075.4,286047001.2,N
1500737095.2,286046998.3,N
1500737115.1,286046999.3,N
1500737116.0,286046999.3,N
1500737135.8,286046998.6,N
1500737155.7,286046998.5,N
1500737175.5,286046999.7,N
1500737195.3,286047000.4,N
1500737215.2,286047000.5,N
1500737235.0,286046998.1,N
1500737235.9,286046998.1,N
1500737255.8,286046998.2,N
1500737275.6,286046998.1,N
1500737295.4,286047000.6,N
1500737315.3,286047000.2,N
1500737335.1,286047000.6,N
1500737355.9,286047000.7,N
1500737375.7,286047001.0,N
1500737395.5,286047000.3,N
1500737415.4,286046999.8,N
1500737435.2,286047002.3,N
1500737455.0,286046999.8,N
1500737455.9,286046999.8,N
1500737475.8,286047000.6,N
1500737495.6,286047002.1,N
1500737515.5,286047001.5,N
1500737535.3,286047002.4,N
1500737555.1,286047002.8,N
1500737575.9,286047000.3,N
1500737595.7,286047000.6,N
1500737615.6,286047000.2,N
1500737635.4,286046999.7,N
1500737655.2,286047001.9,N
1500737675.1,286047002.3,N
1500737676.0,286047002.3,N
1500737695.8,286047001.9,N
1500737715.6,286047002.3,N
1500737735.5,286047002.6,N
1500737755.3,286047000.2,N
1500737775.2,286047002.2,N
1500737795.9,286047002.8,N
1500737815.7,286047004.0,N
1500737835.6,286047003.9,N
1500737855.4,286047004.4,N
1500737875.3,286047003.7,N
1500737895.1,286047003.8,N
1500737896.0,286047003.8,N
1500737915.8,286047003.7,N
1500737935.7,286047003.3,N
1500737955.5,286047005.5,N
1500737975.3,286047003.1,N
1500737995.2,286047003.8,N
1500738015.0,286047003.0,N
1500738015.9,286047003.0,N
1500738035.8,286047003.2,N
1500738055.6,286047005.8,N
1500738075.4,286047006.0,N
1500738095.3,286047004.7,N
1500738115.1,286047007.5,N
1500738135.9,286047004.8,N
1500738155.7,286047003.3,N
1500738175.5,286047003.1,N
1500738195.4,286047003.3,N
1500738215.2,286047005.6,N
1500738235.0,286047005.4,N
1500738236.0,286047005.4,N
1500738255.8,286047003.4,N
1500738275.6,286047001.4,N
1500738295.5,286047004.8,N
1500738315.3,286047004.7,N
1500738335.1,286047005.3,N
1500738355.9,286047003.0,N
1500738375.7,286047005.0,N
1500738395.6,286047003.0,N
1500738415.4,286047003.7,N
1500738435.2,286047005.4,N
1500738455.1,286047004.8,N
1500738456.0,286047004.8,N
1500738475.8,286047005.0,N
1500738495.7,286047006.0,N
1500738515.5,286047005.9,N
1500738535.3,286047005.6,N
1500738555.2,286047004.8,N
1500738575.0,286047005.1,N
1500738575.9,286047005.1,N
1500738595.7,286047004.9,N
1500738615.6,286047005.2,N
1500738635.4,286047007.5,N
1500738655.3,286047004.6,N
1500738675.1,286047004.6,N
1500738695.8,286047007.1,N
1500738715.7,286047006.9,N
1500738735.5,286047005.4,N
1500738755.4,286047005.0,N
1500738775.2,286047006.9,N
1500738795.0,286047007.0,N
1500738795.9,286047007.0,N
1500738815.8,286047006.1,N
1500738835.6,286047008.8,N
1500738855.4,286047007.5,N
1500738875.3,286047004.5,N
1500738895.1,286047007.2,N
1500738915.9,286047007.3,N
1500738935.7,286047006.9,N
1500738955.5,286047006.8,N
1500738975.4,286047004.8,N
1500738995.2,286047006.7,N
1500739015.1,286047006.8,N
1500739016.0,286047006.8,N
1500739035.8,286047006.2,N
1500739055.6,286047010.8,N
1500739075.5,286047008.9,N
1500739095.3,286047009.0,N
1500739115.1,286047009.1,N
1500739135.9,286047006.2,N
1500739155.7,286047006.3,N
1500739175.6,286047009.1,N
1500739195.4,286047009.0,N
